Location: Dampvalley
(47.9094°N, 6.1967°E)
Time: 09:07:17
(UTC+00:00)

AO-109 - Pass Details

Date: 04 December 2021
Orbit: 478 x 516 km, 60.7° (Epoch: 21 January)

Event Time Altitude Azimuth Distance (km) Brightness Sun altitude
Exits shadow 04:43:44 53° 43° (NE) 596 ? -23.2°
Drops below altitude 10° 04:47:18 10° 118° (ESE) 1,650 ? -22.6°
Sets 04:49:29 0° 123° (ESE) 2,527 ? -22.2°
